User: anonymous   Login
Location: Caltech
(34.1382°N, 118.1253°W)
Time: 05:31:18
(UTC-07:00)
Language:

Cosmos 2084 - Orbit

View from above orbital plane
View from above orbital plane
View from above satellite
View from above satellite

Ground track
Ground track

The orbit data is extracted from the following two-line orbital elements,

1 20663U 90055A   17206.23966069 +.00000126 +00000-0 +28296-4 0  9993
2 20663 062.7925 101.1215 0140516 093.7387 267.9787 14.91603120465474
Epoch (UTC): 25 July 2017 05:45:06
Eccentricity: 0.0140516
inclination: 62.7925°
perigee height: 495 km
apogee height: 691 km
right ascension of ascending node: 101.1215°
argument of perigee: 93.7387°
revolutions per day: 14.91603120
mean anomaly at epoch: 267.9787°
orbit number at epoch: 46547

The dashed part of the orbit path shows where the satellite is in the earth's shadow,  

DLR